Current weather by "City, St" or "zip code"  
 

Current Conditions: South St. Paul Municipal-Richard E. Flemi, MN

Fair


37.0 F

Last Updated on Oct 31 2020, 4:55 am CDT
Humidity: 66%
Wind Speed: S 10.4 G 17.3 mph
Barometer 29.96 in
Dewpoint: 26.6 F
Visibility: 10.00 mi
Precip: --
Heat Index: NA
Wind Chill: 30 F
Current conditions at:

South St. Paul Municipal-Richard E. Flemi, MN (KSGS)

Lat: 44.86006 Lon: 93.03203

Local Radar Image active severe weather and emergency alerts image image weather storm and storm spotter reports image weather observation monitoring service image
Local
Radar
Active
Alerts
Storm Reports Obs
Monitoring

Sign-up For Email & Text Message Weather Alert Notification Services



Advertise Here

Observation History for South St. Paul Municipal-Richard E. Flemi, MN


Time Wind
(mph)
Vis
(mi)
Weather Precip (in) Temperature (F) Relative
Humidity
Wind
Chill
(F)
Heat
Index
(F)
Pressure
Air Dwpt altimeter
(in)
sea level
(mb)
Rmks
4:55 am CDT S 10.4 G 17.3 10.00 Fair -- 37.0 26.6 66% 30 NA 29.96 M
3:55 am CDT S 8.1 10.00 Fair -- 37.0 26.4 67% 31 NA 30.00 M
2:55 am CDT S 4.6 10.00 Fair -- 36.0 25.5 65% 32 NA 30.04 M
1:55 am CDT S 6.9 10.00 Fair -- 36.0 25.3 65% 30 NA 30.06 M
12:55 am CDT S 5.8 10.00 Fair -- 37.0 25.0 63% 32 NA 30.10 M
11:55 pm CDT SE 5.8 10.00 Fair -- 36.0 25.3 65% 31 NA 30.13 M
10:55 pm CDT SE 6.9 10.00 Fair -- 37.0 25.5 63% 32 NA 30.14 M
9:55 pm CDT S 6.9 10.00 Fair -- 38.0 25.7 61% 33 NA 30.15 M
8:35 pm CDT S 5.8 10.00 Fair -- 38.0 25.9 61% 34 NA 30.18 M
7:55 pm CDT S 3.5 10.00 Fair -- 38.0 25.0 59% NA NA 30.18 M
6:55 pm CDT S 3.5 10.00 Fair -- 41.0 24.4 52% NA NA 30.18 M
5:55 pm CDT SE 3.5 10.00 Fair -- 43.0 23.9 47% NA NA 30.20 M
4:55 pm CDT S 5.8 10.00 Fair -- 45.0 23.0 42% 42 NA 30.22 M
3:55 pm CDT SE 6.9 10.00 Fair -- 45.0 23.0 42% 41 NA 30.23 M
2:55 pm CDT S 8.1 10.00 Fair -- 45.0 23.7 44% 41 NA 30.24 M
1:55 pm CDT SE 4.6 10.00 Fair -- 44.0 23.2 44% 41 NA 30.26 M
12:55 pm CDT SE 5.8 10.00 Fair -- 42.0 22.3 46% 38 NA 30.28 M
11:55 am CDT SE 4.6 10.00 Fair -- 39.0 23.0 52% 36 NA 30.30 M
10:55 am CDT S 5.8 10.00 Partly Cloudy -- 38.0 24.8 59% 34 NA 30.30 M
9:55 am CDT N 0.0 7.00 Overcast -- 35.0 26.6 73% NA NA 30.30 M
8:55 am CDT N 0.0 10.00 Overcast -- 32.0 26.2 79% NA NA 30.28 M
7:55 am CDT N 0.0 10.00 Overcast -- 30.0 25.2 83% NA NA 30.26 M
6:55 am CDT N 0.0 10.00 Overcast -- 30.0 25.3 82% NA NA 30.24 M
5:55 am CDT N 0.0 10.00 Mostly Cloudy -- 31.0 24.6 79% NA NA 30.22 M

Regional Weather Observation


Minneapolis / Blaine, MN (KANE)

Fair
37.0 F

Downtown Holman Field, MN (KSTP)

Fair
37.0 F

Minneapolis, Minneapolis-St. Paul International Airport, MN (KMSP)

Fair
36.0 F

South St. Paul Municipal-Richard E. Flemi, MN (KSGS)

Fair
37.0 F

Lake Elmo Airport, MN (K21D)

Fair
34.0 F

Minneapolis - Flying Cloud Airport, MN (KFCM)

Fair
37.0 F